SCP
0 0 0 0 0 0 0 0 0 0 0 0 0 0 0 0 0 0 0 0 0 0 0 0 0 0 0 0 0 0 0 0 0 0 0 0 0 0 0 0 0 0 0
0 0 0 0 0 0 0 0 0 0 0 0 0 0 0 0 0 0 0 0 0 0 0 0 0 0 0 0 0 0 0 0 0 0 0 0 0 0 0 0 0 0 0
0 0 0 0 0 0 0 0 0 0 0 0 0 0 0 0 0 0 0 0 0 0 0 0 0 0 0 0 0 0 0 0 0 0 0 0 0 0 0 0 0 0 0
0 0 0 0 0 0 0 0 0 0 0 0 0 0 0 0 0 0 0 0 0 0 0 0 0 0 0 0 0 0 0 0 0 0 0 0 0 0 0 0 0 0 0
0 0 0 0 0 0 0 0 0 0 0 0 0 0 0 0 0 0 0 0 0 0 0 0 0 0 0 0 0 0 0 0 0 0 0 0 0 0 0 0 0 0 0
0 0 0 0 0 0 0 0 0 0 0 0 0 0 0 0 0 0 0 0 0 0 0 0 0 0 0 0 0 0 0 0 0 0 0 0 0 0 0 0 0 0 0
0 0 0 0 0 0 0 0 0 0 0 0 0 0 0 0 0 0 -0 0 0 0 0 0 0 0 0 0 0 0 0 0 0 0 0 0 0 0 0 0 0 0 0
0 0 0 0 0 0 0 0 0 0 0 0 0 0 0 0 -0 -0 -0 0 0 0 0 0 0 0 0 0 0 0 0 0 0 0 0 0 0 0 0 0 0 0 0
0 0 0 0 0 0 0 0 0 0 0 0 0 0 0 0 -0 -0 -0 0 0 0 0 0 0 0 0 0 0 0 0 0 0 0 0 0 0 0 0 0 0 0 0
0 0 0 0 0 0 0 0 0 0 0 0 0 0 0 0 -0 -0 -0 0 0 0 0 0 0 0 0 0 0 0 0 0 0 0 0 0 0 0 0 0 0 0 0
0 0 0 0 0 0 0 0 0 0 0 0 -0 0 0 0 0 -0 -0 -0 0 0 0 0 0 0 0 0 0 0 0 0 0 0 0 0 0 0 0 0 0 0 0
0 0 0 0 0 0 0 0 0 -0 -0 -0 -0 -0 -0 -0 -0 -0 -0 -0 -0 0 0 0 0 0 0 0 0 0 0 0 0 0 0 0 0 0 0 0 0 0 0
0 0 0 0 0 0 0 0 -0 -0 0 0 0 0 -0 -0 0 -0 -0 -0 -0 0 0 0 0 0 0 0 0 0 0 0 0 0 0 0 0 0 0 0 0 0 0
0 0 0 0 -0 -0 0 0 0 0 0 0 0 0 0 0 0 -0 -0 -0 0 0 0 0 0 0 0 0 0 0 0 0 0 0 0 0 0 0 0 0 0 0 0
0 0 0 0 0 0 0 0 0 0 0 0 0 0 0 -0 0 0 0 0 0 0 0 0 0 0 0 0 0 0 0 0 0 0 0 0 0 0 0 0 0 0 0
0 0 -0 -0 -0 0 0 0 0 0 0 0 0 0 0 0 0 0 0 0 0 0 0 0 0 0 0 0 0 0 0 0 0 0 0 0 0 0 0 0 0 0 0
0 0 0 0 0 0 0 0 -0 -0 -0 0 0 0 0 0 0 0 0 0 0 0 0 0 0 0 0 0 0 0 0 0 0 0 0 0 0 0 0 0 0 0 0
0 0 0 0 0 0 0 0 0 -0 -0 -0 -0 0 0 0 0 0 0 0 0 0 0 0 0 0 0 0 0 0 0 0 0 0 0 0 0 0 0 0 0 0 0
0 0 0 0 0 0 0 0 0 0 0 0 0 0 0 0 0 0 0 0 0 0 0 0 0 0 0 0 0 0 0 0 0 0 0 0 0 0 0 0 0 0 0
0 0 0 0 0 0 0 0 0 0 0 0 0 0 0 0 0 0 0 0 0 0 0 0 0 0 0 0 0 0 0 0 0 0 0 0 0 0 0 0 0 0 0
0 0 0 0 0 0 0 0 0 0 0 0 0 0 0 0 0 0 0 0 0 0 0 0 0 0 0 0 0 0 0 0 0 0 0 0 0 0 0 0 0 0 0
0 0 0 0 0 0 0 0 0 0 0 0 0 0 0 0 0 0 0 0 0 0 0 0 0 0 0 0 0 0 0 0 0 0 0 0 0 0 0 0 0 0 0
0 0 0 0 0 0 0 -0 -0 -0 0 0 0 0 0 0 0 0 0 0 0 0 0 0 0 0 0 0 0 0 0 0 0 0 0 0 0 0 0 0 0 0 0
0 0 0 0 0 0 -0 -0 -0 -0 -0 0 0 0 0 0 0 0 0 0 0 0 0 0 0 0 0 0 0 0 0 0 0 0 0 0 0 0 0 0 0 0 0
0 0 0 0 0 0 0 0 0 0 0 0 0 0 0 0 0 0 0 0 0 0 0 0 0 0 0 0 0 0 0 0 0 0 0 0 0 0 0 0 0 0 0
0 0 0 0 0 0 0 0 0 0 0 0 0 0 0 0 0 0 0 0 0 0 0 0 0 0 0 0 0 0 0 0 0 0 0 0 0 0 0 0 0 0 0
Wind_Speed_500mb
36 35 33 28 27 27 27 26 27 29 31 33 36 39 43 46 48 51 52 53 56 58 57 60 65 63 71 74 77 82 84 85 83 108 98 100 99 89 102 99 97 99 101
36 34 30 27 25 24 25 27 29 31 33 36 39 41 43 44 46 48 50 51 55 57 59 60 62 60 64 66 68 75 78 80 83 94 110 104 96 97 94 103 112 105 108
40 36 32 29 28 28 29 30 30 30 32 34 37 39 42 44 45 46 49 51 54 56 58 60 62 62 65 65 65 69 75 83 84 84 107 103 101 105 93 90 96 96 108
44 41 37 34 34 33 34 33 30 29 31 33 36 39 42 45 48 49 52 55 58 60 60 60 62 62 63 63 66 67 67 71 73 77 91 101 96 98 100 95 106 97 96
51 48 44 44 41 40 37 34 32 33 35 38 43 47 51 54 55 56 58 63 67 71 72 71 68 66 64 62 65 69 70 75 73 76 86 87 96 89 96 100 96 99 112
60 56 50 51 48 45 41 38 37 39 42 46 50 56 61 65 66 66 68 73 75 77 81 80 78 80 75 68 64 63 63 70 77 74 84 85 100 89 91 94 98 102 95
66 58 57 56 53 46 45 42 44 46 52 56 61 67 75 77 78 78 78 81 84 85 84 84 86 84 85 83 85 83 76 70 70 72 84 93 97 87 86 97 96 97 105
72 68 66 60 54 50 49 51 51 56 63 71 76 81 86 89 91 92 89 88 89 91 90 88 89 90 86 84 90 95 94 90 84 78 79 89 86 82 78 82 89 98 100
79 75 66 62 58 55 60 58 59 65 73 80 83 89 94 101 101 101 98 94 95 95 92 92 92 93 89 84 89 96 104 105 97 94 94 93 87 82 73 77 86 88 100
70 66 64 62 64 67 63 64 68 73 82 89 96 100 106 114 113 112 104 99 101 100 100 99 96 95 92 89 89 92 106 108 102 103 106 108 105 101 83 67 77 92 95
61 65 66 65 63 59 64 70 76 83 91 99 108 115 120 122 126 118 108 101 98 102 106 107 102 96 95 96 95 97 102 103 107 107 110 113 113 109 98 78 69 74 90
44 45 44 44 52 62 70 78 84 92 101 110 117 130 132 131 128 122 113 106 101 100 106 108 107 104 104 106 103 102 103 101 102 106 112 116 112 107 101 84 67 70 79
29 36 44 52 61 69 79 87 95 100 106 114 119 130 139 132 123 114 107 100 93 91 98 108 112 114 115 118 116 105 98 97 103 102 110 111 98 99 95 91 79 73 74
44 50 58 67 75 82 89 96 103 107 110 114 116 124 132 135 118 106 97 86 87 95 103 111 113 115 114 116 111 106 100 94 89 92 100 103 95 94 91 88 82 75 73
55 61 68 75 82 88 92 96 101 104 103 106 109 114 121 140 118 103 91 95 89 87 90 100 106 97 103 99 94 92 85 84 84 82 85 90 89 92 89 81 81 79 75
59 64 69 75 81 87 95 103 100 105 105 104 104 103 113 122 111 93 86 86 86 81 91 104 104 96 96 97 93 90 85 83 83 83 82 82 85 79 83 81 79 80 80
64 67 73 77 82 87 92 100 115 114 109 108 107 106 103 113 96 81 81 86 88 81 91 104 105 101 101 99 94 90 91 84 80 82 82 84 81 78 78 83 82 79 82
61 65 70 74 77 82 87 93 99 110 121 122 110 101 90 92 100 95 82 85 99 81 81 94 101 97 96 95 95 92 87 85 83 85 84 84 81 80 76 81 80 79 82
54 57 62 68 73 79 85 90 95 101 108 117 117 106 100 92 81 79 74 80 94 96 86 93 96 97 98 95 94 91 87 89 87 85 85 83 82 78 77 80 78 81 81
46 49 55 63 70 75 80 86 91 95 100 106 109 108 103 95 92 87 79 78 87 94 90 91 94 94 95 93 91 92 92 87 85 88 86 80 80 78 77 75 80 81 80
48 49 53 60 68 75 80 84 86 90 94 100 104 101 79 81 91 93 93 90 90 93 93 90 93 94 94 94 94 92 84 89 84 85 83 79 77 79 77 78 78 78 91
48 54 60 65 70 75 79 82 85 87 90 95 102 102 85 88 97 100 100 100 100 100 98 94 95 93 89 88 88 87 82 83 83 78 75 81 80 75 75 75 80 88 96
48 54 59 63 66 70 75 78 80 80 83 85 88 93 90 84 82 86 93 93 94 97 95 92 96 96 92 86 80 84 96 86 80 77 76 80 76 73 78 82 88 94 102
51 53 56 61 66 69 72 76 79 79 79 81 83 86 87 87 86 86 86 86 86 86 84 82 80 82 84 87 88 83 81 81 71 66 71 72 73 78 81 88 95 100 110
49 52 56 60 64 68 71 73 77 80 80 79 80 81 82 83 81 80 78 75 73 72 69 65 65 66 64 57 48 45 54 50 48 60 66 68 74 82 88 90 97 105 107
44 48 52 55 59 62 66 70 73 76 79 79 78 76 75 74 71 70 67 64 62 60 57 55 53 52 51 46 40 34 31 31 42 54 58 69 80 89 94 97 104 108 99
Wind_Direction_500mb
222 224 229 238 247 254 260 267 274 279 283 286 288 289 290 292 293 294 297 300 302 304 302 295 289 284 284 285 285 284 282 279 274 288 285 289 287 288 291 290 288 287 290
227 232 237 241 248 257 265 271 275 279 283 287 289 291 293 295 296 297 298 299 299 300 300 300 300 298 290 283 284 284 284 283 282 279 291 290 289 288 292 292 286 288 290
232 235 238 244 253 257 261 263 266 273 280 285 290 293 295 296 298 301 301 301 300 300 301 301 303 304 303 303 297 286 283 285 285 285 287 288 289 295 290 292 296 291 293
236 237 240 247 249 252 256 260 264 270 276 284 295 303 306 305 304 303 302 300 298 298 297 298 300 300 300 301 299 296 293 285 283 282 282 286 287 287 291 290 297 294 291
238 240 245 248 245 248 251 253 259 271 285 296 303 306 309 310 311 311 309 306 304 302 302 303 303 302 299 298 297 298 297 294 290 284 282 282 283 284 287 293 286 292 295
241 243 243 245 243 244 245 251 261 273 285 295 303 308 309 311 313 314 312 310 307 305 305 306 308 307 307 305 300 296 294 293 288 282 281 279 282 283 286 287 289 295 289
243 243 245 245 244 244 248 257 269 278 285 291 299 306 309 310 313 315 315 312 309 307 306 308 307 307 308 309 306 303 300 296 289 288 284 282 283 285 286 287 291 293 292
246 245 243 242 244 245 252 261 270 279 286 291 296 301 305 308 311 313 314 312 308 306 307 308 306 306 306 307 303 300 300 300 297 294 289 291 287 290 286 288 289 289 291
247 242 240 241 243 250 257 266 275 283 290 294 296 300 304 306 308 310 311 309 306 305 306 304 303 303 304 304 301 300 298 297 299 300 299 297 293 289 286 282 280 286 286
241 235 234 239 244 251 262 273 282 289 293 295 297 300 302 303 306 306 306 306 303 304 302 300 300 301 302 300 298 297 293 294 299 298 297 296 296 296 292 288 282 277 282
225 226 230 236 246 259 270 279 286 291 293 295 296 298 299 301 302 303 304 304 304 303 301 300 300 300 299 298 296 292 291 295 295 294 294 296 297 297 297 296 288 282 280
222 229 241 252 263 271 278 284 288 291 293 294 296 296 298 299 300 302 304 304 306 304 301 300 300 300 299 299 297 293 292 293 292 292 292 292 295 298 299 295 282 279 278
258 263 267 271 277 282 286 289 291 293 294 295 298 297 296 298 299 301 303 306 304 300 298 297 298 297 295 292 290 289 288 287 288 287 288 291 294 296 294 294 291 284 280
283 284 286 287 287 288 289 291 293 294 296 296 296 296 296 296 299 302 304 301 297 296 295 294 293 292 290 289 289 288 288 286 282 281 284 290 292 288 288 292 287 281 274
293 293 293 293 294 294 293 294 294 293 295 296 296 297 297 296 299 301 296 296 292 289 289 286 286 286 287 286 285 284 283 283 281 279 277 283 285 286 288 289 280 272 261
303 302 303 303 302 302 301 298 295 298 300 299 298 297 297 295 298 296 293 291 290 289 284 281 281 280 280 282 281 281 279 276 276 276 272 273 279 276 282 284 278 265 253
311 310 309 309 309 309 308 308 307 305 304 303 303 302 300 299 298 297 295 291 287 285 276 276 274 275 276 278 277 276 276 275 275 273 270 273 275 275 275 275 272 260 243
314 316 317 317 317 317 316 314 313 312 311 310 309 307 302 299 300 301 298 296 289 284 276 275 274 274 274 273 273 273 274 273 272 272 271 274 278 274 268 266 259 250 239
327 329 328 327 327 326 323 319 316 313 311 310 310 310 313 311 302 297 295 286 287 287 282 277 276 274 273 272 273 273 271 271 269 267 271 273 273 269 267 260 249 236 226
335 336 334 332 331 329 327 323 321 317 314 312 311 313 317 316 312 308 303 297 292 290 288 284 282 278 274 272 274 274 271 267 266 266 272 270 262 264 262 244 235 223 205
343 342 340 339 339 337 334 330 325 319 315 313 311 314 308 303 300 299 301 299 296 294 291 286 286 283 279 277 274 273 271 260 264 268 270 263 259 256 245 234 224 206 200
347 349 348 345 342 340 338 334 328 322 319 316 315 314 310 305 307 308 308 305 304 302 300 297 295 291 289 283 279 274 268 265 269 268 261 256 254 239 229 217 203 198 192
349 350 349 346 343 341 340 340 334 327 321 315 312 309 308 305 303 302 302 301 300 298 297 294 291 288 289 289 272 271 274 262 266 267 263 252 238 224 215 209 200 190 185
349 345 346 347 348 346 345 344 342 338 332 327 323 319 315 312 310 310 309 307 305 303 301 297 292 288 283 278 273 270 262 266 270 266 260 237 225 212 205 196 189 186 177
342 343 345 347 349 349 349 349 348 345 342 339 335 330 326 321 321 319 317 315 313 311 311 310 307 304 301 298 291 278 272 270 269 259 239 224 215 205 197 193 186 176 169
339 341 344 345 348 350 350 350 351 350 348 347 346 341 337 334 333 330 330 329 327 325 323 320 314 309 305 303 301 295 286 276 255 239 226 211 199 188 185 185 177 168 164
Wind_Speed_850mb
36 35 33 28 27 27 27 26 27 29 31 33 36 39 43 46 48 51 52 53 56 58 57 60 65 63 71 74 77 82 84 85 83 108 98 100 99 89 102 99 97 99 101
36 34 30 27 25 24 25 27 29 31 33 36 39 41 43 44 46 48 50 51 55 57 59 60 62 60 64 66 68 75 78 80 83 94 110 104 96 97 94 103 112 105 108
40 36 32 29 28 28 29 30 30 30 32 34 37 39 42 44 45 46 49 51 54 56 58 60 62 62 65 65 65 69 75 83 84 84 107 103 101 105 93 90 96 96 108
44 41 37 34 34 33 34 33 30 29 31 33 36 39 42 45 48 49 52 55 58 60 60 60 62 62 63 63 66 67 67 71 73 77 91 101 96 98 100 95 106 97 96
51 48 44 44 41 40 37 34 32 33 35 38 43 47 51 54 55 56 58 63 67 71 72 71 68 66 64 62 65 69 70 75 73 76 86 87 96 89 96 100 96 99 112
60 56 50 51 48 45 41 38 37 39 42 46 50 56 61 65 66 66 68 73 75 77 81 80 78 80 75 68 64 63 63 70 77 74 84 85 100 89 91 94 98 102 95
66 58 57 56 53 46 45 42 44 46 52 56 61 67 75 77 78 78 78 81 84 85 84 84 86 84 85 83 85 83 76 70 70 72 84 93 97 87 86 97 96 97 105
72 68 66 60 54 50 49 51 51 56 63 71 76 81 86 89 91 92 89 88 89 91 90 88 89 90 86 84 90 95 94 90 84 78 79 89 86 82 78 82 89 98 100
79 75 66 62 58 55 60 58 59 65 73 80 83 89 94 101 101 101 98 94 95 95 92 92 92 93 89 84 89 96 104 105 97 94 94 93 87 82 73 77 86 88 100
70 66 64 62 64 67 63 64 68 73 82 89 96 100 106 114 113 112 104 99 101 100 100 99 96 95 92 89 89 92 106 108 102 103 106 108 105 101 83 67 77 92 95
61 65 66 65 63 59 64 70 76 83 91 99 108 115 120 122 126 118 108 101 98 102 106 107 102 96 95 96 95 97 102 103 107 107 110 113 113 109 98 78 69 74 90
44 45 44 44 52 62 70 78 84 92 101 110 117 130 132 131 128 122 113 106 101 100 106 108 107 104 104 106 103 102 103 101 102 106 112 116 112 107 101 84 67 70 79
29 36 44 52 61 69 79 87 95 100 106 114 119 130 139 132 123 114 107 100 93 91 98 108 112 114 115 118 116 105 98 97 103 102 110 111 98 99 95 91 79 73 74
44 50 58 67 75 82 89 96 103 107 110 114 116 124 132 135 118 106 97 86 87 95 103 111 113 115 114 116 111 106 100 94 89 92 100 103 95 94 91 88 82 75 73
55 61 68 75 82 88 92 96 101 104 103 106 109 114 121 140 118 103 91 95 89 87 90 100 106 97 103 99 94 92 85 84 84 82 85 90 89 92 89 81 81 79 75
59 64 69 75 81 87 95 103 100 105 105 104 104 103 113 122 111 93 86 86 86 81 91 104 104 96 96 97 93 90 85 83 83 83 82 82 85 79 83 81 79 80 80
64 67 73 77 82 87 92 100 115 114 109 108 107 106 103 113 96 81 81 86 88 81 91 104 105 101 101 99 94 90 91 84 80 82 82 84 81 78 78 83 82 79 82
61 65 70 74 77 82 87 93 99 110 121 122 110 101 90 92 100 95 82 85 99 81 81 94 101 97 96 95 95 92 87 85 83 85 84 84 81 80 76 81 80 79 82
54 57 62 68 73 79 85 90 95 101 108 117 117 106 100 92 81 79 74 80 94 96 86 93 96 97 98 95 94 91 87 89 87 85 85 83 82 78 77 80 78 81 81
46 49 55 63 70 75 80 86 91 95 100 106 109 108 103 95 92 87 79 78 87 94 90 91 94 94 95 93 91 92 92 87 85 88 86 80 80 78 77 75 80 81 80
48 49 53 60 68 75 80 84 86 90 94 100 104 101 79 81 91 93 93 90 90 93 93 90 93 94 94 94 94 92 84 89 84 85 83 79 77 79 77 78 78 78 91
48 54 60 65 70 75 79 82 85 87 90 95 102 102 85 88 97 100 100 100 100 100 98 94 95 93 89 88 88 87 82 83 83 78 75 81 80 75 75 75 80 88 96
48 54 59 63 66 70 75 78 80 80 83 85 88 93 90 84 82 86 93 93 94 97 95 92 96 96 92 86 80 84 96 86 80 77 76 80 76 73 78 82 88 94 102
51 53 56 61 66 69 72 76 79 79 79 81 83 86 87 87 86 86 86 86 86 86 84 82 80 82 84 87 88 83 81 81 71 66 71 72 73 78 81 88 95 100 110
49 52 56 60 64 68 71 73 77 80 80 79 80 81 82 83 81 80 78 75 73 72 69 65 65 66 64 57 48 45 54 50 48 60 66 68 74 82 88 90 97 105 107
44 48 52 55 59 62 66 70 73 76 79 79 78 76 75 74 71 70 67 64 62 60 57 55 53 52 51 46 40 34 31 31 42 54 58 69 80 89 94 97 104 108 99
Wind_Direction_850mb
222 224 229 238 247 254 260 267 274 279 283 286 288 289 290 292 293 294 297 300 302 304 302 295 289 284 284 285 285 284 282 279 274 288 285 289 287 288 291 290 288 287 290
227 232 237 241 248 257 265 271 275 279 283 287 289 291 293 295 296 297 298 299 299 300 300 300 300 298 290 283 284 284 284 283 282 279 291 290 289 288 292 292 286 288 290
232 235 238 244 253 257 261 263 266 273 280 285 290 293 295 296 298 301 301 301 300 300 301 301 303 304 303 303 297 286 283 285 285 285 287 288 289 295 290 292 296 291 293
236 237 240 247 249 252 256 260 264 270 276 284 295 303 306 305 304 303 302 300 298 298 297 298 300 300 300 301 299 296 293 285 283 282 282 286 287 287 291 290 297 294 291
238 240 245 248 245 248 251 253 259 271 285 296 303 306 309 310 311 311 309 306 304 302 302 303 303 302 299 298 297 298 297 294 290 284 282 282 283 284 287 293 286 292 295
241 243 243 245 243 244 245 251 261 273 285 295 303 308 309 311 313 314 312 310 307 305 305 306 308 307 307 305 300 296 294 293 288 282 281 279 282 283 286 287 289 295 289
243 243 245 245 244 244 248 257 269 278 285 291 299 306 309 310 313 315 315 312 309 307 306 308 307 307 308 309 306 303 300 296 289 288 284 282 283 285 286 287 291 293 292
246 245 243 242 244 245 252 261 270 279 286 291 296 301 305 308 311 313 314 312 308 306 307 308 306 306 306 307 303 300 300 300 297 294 289 291 287 290 286 288 289 289 291
247 242 240 241 243 250 257 266 275 283 290 294 296 300 304 306 308 310 311 309 306 305 306 304 303 303 304 304 301 300 298 297 299 300 299 297 293 289 286 282 280 286 286
241 235 234 239 244 251 262 273 282 289 293 295 297 300 302 303 306 306 306 306 303 304 302 300 300 301 302 300 298 297 293 294 299 298 297 296 296 296 292 288 282 277 282
225 226 230 236 246 259 270 279 286 291 293 295 296 298 299 301 302 303 304 304 304 303 301 300 300 300 299 298 296 292 291 295 295 294 294 296 297 297 297 296 288 282 280
222 229 241 252 263 271 278 284 288 291 293 294 296 296 298 299 300 302 304 304 306 304 301 300 300 300 299 299 297 293 292 293 292 292 292 292 295 298 299 295 282 279 278
258 263 267 271 277 282 286 289 291 293 294 295 298 297 296 298 299 301 303 306 304 300 298 297 298 297 295 292 290 289 288 287 288 287 288 291 294 296 294 294 291 284 280
283 284 286 287 287 288 289 291 293 294 296 296 296 296 296 296 299 302 304 301 297 296 295 294 293 292 290 289 289 288 288 286 282 281 284 290 292 288 288 292 287 281 274
293 293 293 293 294 294 293 294 294 293 295 296 296 297 297 296 299 301 296 296 292 289 289 286 286 286 287 286 285 284 283 283 281 279 277 283 285 286 288 289 280 272 261
303 302 303 303 302 302 301 298 295 298 300 299 298 297 297 295 298 296 293 291 290 289 284 281 281 280 280 282 281 281 279 276 276 276 272 273 279 276 282 284 278 265 253
311 310 309 309 309 309 308 308 307 305 304 303 303 302 300 299 298 297 295 291 287 285 276 276 274 275 276 278 277 276 276 275 275 273 270 273 275 275 275 275 272 260 243
314 316 317 317 317 317 316 314 313 312 311 310 309 307 302 299 300 301 298 296 289 284 276 275 274 274 274 273 273 273 274 273 272 272 271 274 278 274 268 266 259 250 239
327 329 328 327 327 326 323 319 316 313 311 310 310 310 313 311 302 297 295 286 287 287 282 277 276 274 273 272 273 273 271 271 269 267 271 273 273 269 267 260 249 236 226
335 336 334 332 331 329 327 323 321 317 314 312 311 313 317 316 312 308 303 297 292 290 288 284 282 278 274 272 274 274 271 267 266 266 272 270 262 264 262 244 235 223 205
343 342 340 339 339 337 334 330 325 319 315 313 311 314 308 303 300 299 301 299 296 294 291 286 286 283 279 277 274 273 271 260 264 268 270 263 259 256 245 234 224 206 200
347 349 348 345 342 340 338 334 328 322 319 316 315 314 310 305 307 308 308 305 304 302 300 297 295 291 289 283 279 274 268 265 269 268 261 256 254 239 229 217 203 198 192
349 350 349 346 343 341 340 340 334 327 321 315 312 309 308 305 303 302 302 301 300 298 297 294 291 288 289 289 272 271 274 262 266 267 263 252 238 224 215 209 200 190 185
349 345 346 347 348 346 345 344 342 338 332 327 323 319 315 312 310 310 309 307 305 303 301 297 292 288 283 278 273 270 262 266 270 266 260 237 225 212 205 196 189 186 177
342 343 345 347 349 349 349 349 348 345 342 339 335 330 326 321 321 319 317 315 313 311 311 310 307 304 301 298 291 278 272 270 269 259 239 224 215 205 197 193 186 176 169
339 341 344 345 348 350 350 350 351 350 348 347 346 341 337 334 333 330 330 329 327 325 323 320 314 309 305 303 301 295 286 276 255 239 226 211 199 188 185 185 177 168 164